Wind_Speed
93 89 84 78 73 70 68 66 66 66 63 60 61 61 59 60 60 59 59 56 54 51 49 48 49 52 53 53 54 55 56 55 54 54 55 56 57 58 59 60 62 62 60 57 56 55 54 55 55 54 54 53 52 51 50 48 47 46 45 44 43 42 42 42 43 43 43 43 43 43 44 44 45 45 44 43 41 40 40 38 36 35 35 35 34 33
95 89 82 78 76 75 72 71 68 65 61 59 62 63 62 63 62 60 59 57 54 50 48 47 48 50 50 49 50 51 51 52 52 53 53 54 54 55 56 58 61 61 59 57 57 56 56 56 56 55 55 54 53 52 50 48 47 46 45 45 44 44 44 44 45 44 44 44 45 45 45 45 46 45 44 43 42 41 40 40 39 38 37 37 36 34
95 87 83 82 81 78 76 73 68 64 62 62 64 65 64 65 63 61 59 57 53 49 47 46 46 48 47 46 46 45 47 49 50 51 51 52 52 52 53 55 57 58 57 56 57 57 58 58 57 56 56 55 54 52 50 49 47 46 46 45 45 45 45 46 46 45 45 45 46 46 45 45 45 44 43 41 40 39 39 39 38 36 36 36 36 36
93 88 87 87 84 80 77 74 69 66 66 66 65 65 65 65 63 62 60 56 53 50 47 45 45 47 44 42 41 41 43 45 46 47 48 49 49 50 52 53 54 54 53 54 54 56 57 57 58 57 56 55 53 51 50 48 47 47 46 46 46 46 46 46 45 43 42 42 42 44 45 46 45 43 42 39 37 37 37 36 35 34 35 36 36 37
95 93 93 89 84 81 78 75 71 69 68 67 65 64 66 66 65 64 60 57 54 51 47 46 46 45 42 40 39 39 40 41 41 43 44 45 47 49 51 51 52 52 52 52 53 55 55 56 56 56 56 55 53 51 49 47 47 47 46 46 46 46 47 45 43 40 37 35 36 38 39 42 44 44 42 39 37 37 37 36 36 38 39 40 39 40
100 98 95 89 85 83 81 77 73 69 67 67 65 64 65 66 66 64 61 58 56 51 48 47 46 43 41 39 38 38 38 38 39 39 40 42 44 46 48 50 51 52 52 52 54 55 54 54 54 54 54 54 53 52 50 48 48 47 45 45 45 45 45 43 42 40 36 33 35 36 36 38 40 41 41 40 39 39 39 39 41 43 45 44 43 43
103 99 94 89 87 86 83 78 73 70 69 67 65 64 64 66 67 65 62 60 56 52 49 47 46 44 43 40 38 38 37 37 36 36 37 39 41 43 46 48 50 51 51 52 53 54 53 52 51 51 51 51 51 51 49 49 48 46 44 43 44 46 46 44 42 42 40 37 38 38 37 36 35 36 37 39 41 43 44 44 46 47 48 48 47 45
104 98 93 92 91 87 83 78 74 71 70 68 66 65 65 67 67 65 63 60 56 52 49 48 47 46 43 40 39 38 37 35 34 35 37 39 41 43 45 46 47 48 49 49 50 51 51 50 49 48 48 48 48 48 47 47 46 42 40 40 42 44 44 43 42 42 43 43 43 42 40 36 34 32 31 32 35 39 42 45 47 48 49 49 47 44
102 97 95 94 92 87 83 79 75 73 72 69 68 67 67 67 67 66 65 62 57 52 50 49 47 45 42 40 39 38 36 35 36 39 41 41 41 41 42 43 45 45 45 45 46 48 48 48 47 46 45 45 45 44 44 43 39 33 31 34 37 40 41 40 40 40 42 44 43 42 42 39 35 30 26 27 30 33 36 40 42 44 44 43 43 42
102 99 98 96 92 88 85 81 77 76 73 70 69 70 68 66 67 68 66 62 58 54 52 49 45 43 41 39 38 37 36 37 41 42 41 40 40 40 41 42 42 42 42 42 43 44 45 45 44 43 43 43 43 42 41 38 32 27 29 35 38 39 39 36 34 33 35 37 35 34 38 40 38 36 33 32 35 36 38 40 41 42 42 41 41 41
104 102 101 97 93 90 87 82 79 78 74 72 73 72 69 67 67 67 65 62 58 54 51 47 44 42 40 38 36 36 38 42 43 42 40 40 40 40 41 41 41 40 39 40 40 41 42 42 41 40 41 42 42 42 39 35 30 28 35 42 43 41 38 35 32 30 30 31 30 30 34 38 39 41 39 36 38 41 42 43 44 45 45 44 42 40
105 104 102 98 94 91 87 83 81 79 75 75 76 73 70 68 66 65 65 62 57 54 51 48 45 43 39 37 35 36 40 42 42 41 41 42 41 40 41 40 40 39 39 39 39 39 39 39 38 38 40 41 41 41 38 35 32 33 40 45 44 38 34 34 34 32 32 31 28 28 28 32 37 38 35 34 36 39 42 45 47 47 47 44 40 37
106 104 101 98 94 90 86 85 83 81 78 78 77 73 70 68 65 63 61 58 56 55 52 48 46 43 38 35 34 36 39 40 41 43 42 42 41 41 41 41 40 39 39 38 37 37 36 36 35 36 38 39 40 40 38 35 35 39 42 42 38 33 31 32 31 30 31 31 29 27 25 29 37 38 36 37 36 34 36 39 41 42 41 38 36 35
107 105 102 98 94 90 88 86 82 78 77 76 73 69 67 66 63 60 57 56 56 54 50 48 47 42 35 33 34 36 37 39 41 42 41 41 41 41 41 40 40 38 37 36 35 34 34 33 33 34 36 38 39 39 38 37 39 41 41 39 36 33 30 29 30 31 30 27 27 28 28 33 37 36 34 34 31 31 32 31 32 34 33 32 32 32
106 103 100 96 92 90 88 85 80 77 76 74 71 70 67 63 60 58 56 55 54 52 50 49 47 40 34 33 35 36 37 38 40 39 39 40 41 42 41 40 38 37 36 34 33 32 31 31 31 33 35 37 38 38 37 38 41 41 40 41 39 34 28 27 31 35 34 30 28 28 30 35 37 33 28 27 29 32 32 29 29 30 29 29 30 30
105 101 98 95 92 90 88 84 82 81 79 76 73 71 67 63 61 59 56 53 51 50 49 49 46 38 33 35 37 37 36 37 37 37 37 39 42 42 41 40 38 37 35 33 32 31 30 30 31 32 34 36 37 37 37 39 41 41 41 41 40 36 34 33 35 38 37 36 33 32 33 35 37 35 32 31 34 35 32 30 30 29 28 30 31 32
104 101 99 96 93 91 89 86 83 81 79 76 73 69 67 65 61 58 55 52 50 49 50 50 45 39 37 41 41 38 37 37 36 35 36 39 42 42 41 40 38 36 34 32 31 30 29 29 30 32 33 35 35 36 36 38 41 42 42 39 39 41 42 41 41 41 40 38 37 38 39 38 37 36 35 35 36 35 33 32 32 31 29 31 33 35
104 102 99 96 93 92 89 86 84 82 79 76 73 70 68 64 59 56 55 52 51 52 53 51 45 42 42 45 42 38 37 36 35 34 36 39 41 41 41 39 37 35 33 31 29 29 29 29 30 31 32 33 33 34 36 38 40 43 42 39 40 43 42 41 42 41 40 40 40 41 42 41 39 36 36 37 36 34 34 35 35 33 31 33 36 38
105 101 98 96 94 93 89 87 87 85 80 77 74 71 67 62 59 57 54 52 50 50 50 48 43 41 42 45 43 38 37 36 35 35 36 39 40 40 39 37 36 34 32 30 29 28 28 28 28 29 31 32 33 34 35 36 39 41 41 40 41 40 37 37 40 41 40 40 40 41 42 43 42 40 39 38 36 34 36 38 38 34 32 34 37 40
103 100 98 97 96 94 91 89 87 83 80 78 74 69 66 64 61 57 54 52 50 49 48 45 40 38 40 46 46 39 37 36 35 35 37 39 38 37 37 35 34 34 32 30 28 27 27 27 27 29 31 32 33 33 33 35 37 39 40 41 41 39 37 37 38 39 40 39 39 40 42 44 44 42 40 38 37 37 38 39 37 34 34 36 37 39
102 100 98 97 96 94 91 88 85 81 79 76 71 67 65 64 61 57 54 53 50 49 48 44 40 39 42 49 47 40 37 36 36 36 37 37 36 35 34 34 34 33 32 30 28 27 27 27 27 29 31 33 33 33 34 34 33 34 39 41 40 41 41 40 39 40 40 40 39 40 42 44 43 41 39 39 40 40 40 39 37 35 36 37 39 40
101 100 98 96 94 92 90 88 84 81 78 74 70 68 65 62 60 57 54 52 50 49 47 43 41 42 46 51 47 40 37 36 36 36 36 35 34 33 33 34 34 33 31 30 29 27 26 26 27 29 30 33 33 33 33 31 30 35 41 42 41 43 43 42 42 42 41 40 39 40 42 44 44 43 42 42 43 42 41 39 36 35 37 39 40 42
101 99 97 95 93 92 91 89 85 82 78 75 72 69 66 63 59 55 54 53 51 49 46 44 43 45 50 50 45 39 37 37 36 36 35 34 33 32 33 34 34 33 31 30 29 27 26 25 26 28 30 31 32 33 32 31 34 42 44 42 43 44 43 43 42 42 42 40 38 39 41 42 42 42 42 42 41 40 40 39 37 36 38 40 42 42
101 99 97 96 95 93 92 89 85 82 78 76 73 69 65 62 59 56 55 53 51 49 47 45 46 49 52 49 44 40 39 38 37 37 35 33 32 31 32 34 34 33 31 29 28 26 25 25 25 27 28 29 31 32 32 33 39 46 46 44 44 42 41 42 42 41 41 40 39 38 38 37 37 38 39 39 39 39 39 38 37 37 40 42 42 42
101 100 98 96 95 94 92 90 86 82 77 74 71 68 65 64 62 57 53 51 50 49 47 46 48 51 52 48 44 41 40 38 37 36 35 34 32 31 31 33 33 33 31 29 27 25 25 24 24 26 27 29 30 32 33 36 42 47 47 45 44 41 40 42 42 41 40 40 41 40 39 38 38 39 39 38 38 38 38 37 37 37 40 41 42 42
100 99 96 94 91 89 87 84 80 75 72 70 69 67 65 65 62 57 54 53 52 50 48 48 50 52 51 47 43 41 40 38 36 36 35 34 32 30 30 31 32 32 31 28 26 25 24 23 24 24 26 28 31 33 36 39 43 45 46 45 44 42 41 41 40 39 39 39 39 39 38 39 40 40 38 37 36 37 37 37 36 36 38 40 41 42
97 96 94 91 87 84 82 78 76 73 70 68 67 66 64 63 61 58 57 57 54 52 50 49 51 52 50 46 43 41 40 38 36 35 35 33 31 29 29 29 31 31 30 28 26 24 23 22 23 23 25 27 30 33 36 39 42 44 44 44 43 42 41 40 38 37 37 37 36 35 34 36 39 38 37 36 37 38 38 37 36 36 38 40 42 43
93 93 92 90 88 86 83 80 77 76 73 69 67 66 65 65 62 60 58 55 54 53 52 51 51 52 50 46 43 41 40 38 36 35 34 33 31 29 28 28 28 28 28 27 26 24 23 22 22 23 24 26 28 32 35 38 41 42 42 43 42 41 40 39 38 36 36 35 34 32 32 36 37 35 34 36 38 38 39 39 38 38 40 41 43 44
91 91 90 89 87 85 81 78 75 73 71 69 68 66 65 64 62 59 57 55 54 54 53 52 52 51 49 46 43 41 40 39 38 36 34 33 31 29 28 27 26 27 27 26 25 25 24 23 22 22 23 24 27 30 34 37 39 40 41 42 41 39 38 37 37 36 35 34 33 33 33 35 36 36 35 36 36 36 38 39 40 41 43 44 45 45
89 89 88 86 84 81 79 77 75 72 69 68 68 67 66 65 62 59 57 55 54 53 51 51 51 49 47 45 44 42 41 40 39 37 34 33 32 30 28 27 27 26 25 25 25 26 25 23 22 22 22 24 26 28 31 35 38 39 41 41 40 39 38 37 38 37 36 35 34 34 34 34 35 38 39 37 37 37 38 38 40 42 43 44 46 46
85 86 85 83 82 80 78 76 74 72 70 69 69 69 68 66 64 60 58 56 53 52 51 51 50 49 47 46 45 44 43 42 40 37 36 35 33 31 29 28 27 26 25 25 25 26 26 24 23 21 21 22 24 26 29 32 35 37 39 40 40 40 38 38 38 37 36 35 34 34 35 35 35 37 40 40 39 39 40 40 41 42 44 45 47 48
82 82 81 80 79 78 76 74 72 71 71 71 71 70 68 66 64 61 58 55 53 53 52 51 50 49 48 48 47 45 44 43 40 39 39 37 34 32 31 29 27 25 24 24 25 26 26 25 24 22 21 21 22 24 27 30 33 35 37 39 39 38 38 38 38 37 36 36 36 36 36 36 36 37 38 40 41 42 43 43 43 44 45 46 46 47
78 78 77 76 75 75 74 73 71 71 71 70 69 68 67 65 63 61 59 56 55 53 52 52 52 50 49 49 48 46 44 43 42 42 41 39 36 34 32 30 27 25 24 24 25 26 26 26 25 24 22 22 22 24 25 28 30 33 36 37 38 38 39 39 40 39 38 38 38 38 38 38 38 37 38 39 40 41 42 43 43 44 44 44 45 46
75 74 74 74 73 73 73 72 72 70 68 66 66 67 67 65 63 61 59 58 57 54 53 54 53 51 50 49 48 46 44 43 43 43 43 40 37 35 33 30 27 25 25 25 26 27 27 27 26 25 24 23 22 23 24 26 28 31 33 35 37 38 39 40 40 39 39 38 38 39 39 39 38 38 38 38 39 39 40 40 41 41 42 44 45 45
73 72 72 72 71 71 71 71 69 68 66 66 67 67 66 65 63 62 62 61 59 56 56 56 54 52 51 50 48 47 46 45 44 44 43 41 38 36 34 31 28 27 26 26 27 28 28 28 27 26 25 24 23 23 24 25 26 28 29 32 34 35 37 39 39 39 38 38 38 38 38 38 38 38 37 38 38 37 37 38 39 40 42 43 43 42
73 72 71 70 70 69 69 67 66 66 67 67 68 67 66 64 63 62 60 59 58 57 57 56 54 52 51 50 49 48 47 46 45 45 44 41 38 36 34 32 30 29 28 27 27 27 27 27 28 27 25 25 24 24 24 24 25 25 27 28 30 32 34 36 37 36 36 37 37 36 36 35 34 33 33 34 35 35 35 36 37 38 40 41 39 37
72 71 70 69 68 67 66 65 65 67 68 67 66 65 64 62 61 59 58 58 57 57 57 55 54 53 52 50 49 48 47 46 46 45 44 41 38 37 35 34 33 31 28 27 26 26 26 27 28 27 27 26 26 26 25 25 25 25 26 26 27 29 30 31 31 31 33 35 36 35 33 32 31 30 30 31 32 33 33 34 35 37 38 38 37 36
71 70 69 68 66 65 64 64 66 67 67 65 64 63 62 61 61 60 59 59 58 57 56 55 54 54 52 51 49 48 47 47 46 45 44 42 40 40 38 37 34 31 28 27 26 26 26 27 27 28 28 29 28 28 27 26 25 25 25 25 25 26 27 27 27 28 31 34 34 33 33 32 31 31 31 31 31 31 31 33 35 36 38 37 37 37
70 69 68 66 64 63 63 64 65 65 65 64 63 63 62 62 62 61 59 58 57 57 56 56 55 54 53 51 50 49 48 46 45 44 43 42 42 42 40 37 34 31 30 28 27 26 26 26 27 28 29 30 30 30 29 27 26 25 25 25 25 25 26 26 24 26 30 31 30 31 32 31 31 32 32 32 32 31 32 34 35 35 35 36 37 36
68 67 66 64 63 62 62 63 63 64 65 64 63 63 62 62 61 59 57 56 56 56 56 56 55 54 53 52 51 50 48 47 46 45 45 44 43 42 40 37 35 33 32 30 29 27 27 26 26 27 29 30 31 31 30 29 28 27 26 25 25 25 25 24 22 24 28 30 30 32 34 33 32 33 33 34 35 33 33 35 36 36 38 38 37 35
66 66 65 63 62 62 62 62 64 65 65 64 63 63 63 62 61 59 57 57 57 56 56 55 55 54 53 52 51 50 49 49 48 46 44 43 42 42 41 38 36 34 33 32 31 29 28 27 27 28 29 30 31 32 32 31 30 28 27 26 26 25 23 22 24 28 31 32 33 35 37 35 34 33 33 36 38 38 38 40 40 40 39 37 35 36
63 63 63 62 62 61 62 63 64 64 64 64 64 63 63 62 61 59 58 58 57 56 55 55 54 53 53 52 52 51 51 50 47 45 44 43 43 43 41 39 36 35 35 34 33 32 31 30 29 29 29 31 32 33 33 33 31 30 28 27 27 26 24 24 27 32 34 35 36 37 36 34 33 32 33 35 37 38 39 40 40 39 37 36 37 38
62 61 61 61 60 61 62 62 62 63 63 63 63 63 62 61 61 60 60 59 58 57 56 55 54 53 53 52 52 52 51 49 46 44 44 44 43 43 41 39 38 38 37 36 35 34 33 32 31 31 31 31 32 33 33 33 32 31 31 29 27 26 25 25 27 29 30 32 34 35 34 33 33 33 33 34 34 35 37 38 39 39 39 39 40 40
60 60 60 60 59 59 60 61 61 62 63 63 62 62 62 62 62 62 61 60 58 57 56 55 54 54 53 53 52 51 50 48 46 44 44 43 43 42 41 40 40 40 38 37 37 36 35 34 34 34 33 33 33 33 33 33 33 33 33 31 27 25 25 27 29 29 28 29 31 32 32 33 34 34 34 36 37 37 38 39 40 41 42 42 42 40
57 58 59 59 59 60 61 61 62 62 62 62 62 62 62 62 63 62 61 60 58 57 56 55 54 54 53 53 52 51 49 47 45 44 43 42 41 41 41 41 41 40 40 39 39 38 38 37 36 36 35 35 34 34 34 34 34 35 35 33 30 28 28 30 33 33 31 30 31 31 32 34 35 34 35 39 40 40 40 40 40 42 44 44 44 44
56 56 57 58 59 60 61 62 62 62 62 62 62 62 62 62 62 61 60 59 58 57 55 55 54 54 53 53 52 51 49 47 45 44 43 42 42 42 41 41 41 41 41 41 41 40 40 39 38 38 37 36 36 35 35 35 36 37 37 36 34 32 32 33 34 35 34 33 33 33 33 35 36 37 38 40 41 42 44 43 43 45 48 48 48 48
55 55 55 55 57 58 59 61 61 61 61 61 62 62 62 62 61 61 60 59 58 56 55 54 54 54 53 52 52 50 49 47 46 45 44 44 43 43 42 42 41 41 42 42 43 42 41 40 39 39 38 38 37 37 36 36 36 37 38 38 37 36 35 35 35 36 37 37 36 36 35 36 38 40 41 42 43 44 46 47 48 49 50 49 48 49
56 56 55 55 56 57 58 59 60 60 60 61 61 62 62 61 61 61 60 59 58 56 55 54 53 53 53 52 52 51 49 48 47 46 45 44 44 44 43 43 42 42 43 43 43 43 42 41 40 40 40 40 40 39 38 37 37 37 38 38 39 39 38 37 36 36 37 39 40 40 39 38 38 40 42 44 45 46 48 49 49 49 49 49 49 50
57 57 57 57 57 58 59 59 59 60 61 62 63 63 63 63 62 62 61 60 59 57 55 54 54 53 53 53 53 52 50 49 48 47 46 46 45 45 45 44 43 43 44 44 44 43 42 42 41 41 42 42 42 41 40 39 38 38 38 38 39 40 40 40 39 37 37 39 40 41 42 42 42 43 44 46 47 48 49 50 50 50 50 51 52 53
59 59 59 59 59 59 59 60 61 62 63 64 65 65 65 65 64 63 62 60 59 57 56 55 54 53 53 53 52 52 51 50 49 48 48 48 47 46 46 45 45 45 46 46 45 44 43 42 42 42 43 43 43 42 42 41 40 40 39 39 39 40 41 42 42 41 40 40 42 43 44 45 46 47 48 50 51 52 53 54 54 54 54 55 56 58
61 61 60 60 60 60 60 61 62 63 65 65 64 64 64 64 63 62 60 59 58 57 56 55 54 53 53 53 52 52 52 51 51 50 50 49 48 47 47 48 48 48 48 48 46 45 45 44 44 44 44 44 43 43 43 43 42 42 42 41 41 41 42 43 44 44 43 43 43 45 46 48 50 51 52 53 54 56 57 58 58 58 59 60 61 62
Wind_Direction
220 221 220 219 219 219 220 221 219 218 218 216 218 217 218 221 221 221 223 224 225 225 226 226 228 232 233 232 234 235 236 236 237 237 238 239 239 238 239 239 240 240 240 240 241 242 242 243 243 244 244 244 244 243 243 243 244 245 246 247 249 251 253 255 257 259 261 264 266 268 270 272 273 274 275 277 278 278 278 277 273 270 268 271 273 274
219 219 218 217 217 217 217 219 218 217 216 215 217 216 217 220 221 221 222 223 224 223 224 224 227 231 233 233 234 236 237 238 238 238 239 240 240 240 240 241 242 242 242 242 242 242 242 243 243 244 244 245 245 245 245 245 246 247 248 249 250 251 253 255 257 259 262 265 267 269 270 271 272 272 274 275 276 276 277 276 272 269 268 269 271 272
217 217 216 216 215 215 216 217 217 215 214 214 216 215 215 219 221 221 223 224 225 224 224 224 227 231 232 232 234 235 238 239 239 239 240 240 241 242 242 242 243 244 244 244 243 243 243 244 244 244 245 245 246 247 247 247 248 249 250 251 252 253 255 256 258 261 264 267 269 269 269 269 269 270 272 274 276 276 276 273 268 265 266 269 270 270
215 214 214 215 214 214 215 216 215 214 213 214 215 214 214 218 220 221 222 223 224 224 224 225 227 230 231 232 234 235 238 239 239 240 240 241 242 242 242 243 244 244 244 244 244 244 244 244 244 244 245 246 247 247 248 249 250 251 252 253 254 255 257 259 261 265 269 271 271 269 267 266 266 267 269 272 274 275 273 269 264 263 269 274 275 271
212 212 213 213 213 213 213 214 214 213 213 214 214 214 214 217 219 220 220 221 222 222 222 223 227 229 230 231 232 233 237 239 240 240 241 241 241 242 242 243 243 243 243 243 243 243 242 243 244 244 245 246 247 248 248 249 250 251 252 253 255 257 259 261 263 266 268 270 270 268 267 265 264 263 265 268 270 269 267 266 265 268 274 278 276 273
210 210 211 211 211 212 212 212 213 213 213 214 214 214 215 216 218 220 219 220 221 221 221 223 226 228 228 230 231 232 235 237 239 240 241 242 242 242 243 243 243 243 243 242 242 243 242 242 243 244 244 245 246 247 248 249 250 251 253 255 257 259 260 262 263 263 261 260 262 266 270 268 264 263 263 263 262 260 261 264 266 270 274 275 275 275
209 209 209 209 210 211 211 211 211 212 213 213 213 214 215 216 218 219 219 220 220 220 221 223 225 227 227 228 229 231 233 236 238 240 241 242 242 242 242 242 242 242 242 242 243 244 243 243 243 243 244 245 245 246 247 248 250 251 254 257 260 261 262 262 262 260 257 255 258 265 271 272 270 271 269 263 259 257 257 261 264 267 270 272 274 276
208 208 207 207 209 210 209 209 210 211 212 213 213 214 215 216 217 218 219 220 220 220 221 223 225 227 228 228 230 232 233 235 237 239 240 239 239 239 240 241 242 243 243 244 245 246 246 245 245 245 245 245 245 245 245 247 248 252 257 261 263 264 262 262 262 259 257 257 260 266 270 273 276 276 273 269 264 261 260 260 262 265 268 271 273 274
207 206 206 207 208 208 208 208 208 210 211 211 213 214 215 215 216 217 218 219 219 220 221 223 225 228 229 230 232 233 234 235 237 237 237 238 239 240 241 242 243 244 245 246 247 248 248 247 246 246 246 246 246 245 244 245 246 250 258 260 259 259 259 259 259 259 259 260 263 267 271 274 277 273 268 269 269 268 266 265 265 267 269 272 274 275
205 205 206 207 206 207 207 206 207 209 209 210 212 214 214 215 215 216 217 218 218 219 221 224 226 228 230 231 233 234 235 236 236 237 237 239 241 242 242 243 244 245 245 246 247 248 248 248 247 246 246 246 245 244 243 242 239 236 242 247 246 248 252 253 255 257 258 259 259 262 266 271 274 272 268 265 263 264 266 266 268 270 272 275 277 276
203 203 205 205 205 205 206 205 206 208 208 208 211 213 213 214 215 216 217 217 218 219 222 224 225 227 229 230 232 233 235 236 237 239 239 240 241 242 243 244 245 245 245 245 245 246 246 246 245 244 244 244 243 243 241 238 232 221 226 235 239 242 246 247 249 253 254 256 256 254 258 265 269 268 266 260 258 260 262 264 268 271 274 278 278 274
201 203 204 204 204 204 204 204 206 207 207 208 211 212 212 213 214 215 216 216 217 219 221 223 225 227 228 229 231 233 235 237 238 240 240 240 241 242 244 244 245 245 244 244 244 245 245 245 244 242 242 241 240 240 238 233 226 218 220 227 234 239 244 247 250 252 251 251 255 252 249 257 263 263 263 266 267 264 262 263 266 269 272 275 273 270
200 202 203 203 203 203 203 204 205 206 206 209 211 212 212 212 213 214 215 215 217 219 221 223 226 227 228 229 232 235 237 237 237 238 239 240 242 243 244 244 244 244 244 245 245 246 246 245 244 242 240 240 238 237 235 230 224 220 220 223 230 237 243 247 249 250 248 247 252 250 237 245 257 262 270 278 279 274 271 268 267 268 271 271 268 266
199 201 202 202 202 202 203 205 206 206 208 211 212 213 213 213 214 214 215 215 217 218 220 223 227 228 228 231 233 235 237 236 236 237 239 240 241 242 243 244 245 246 247 247 247 248 248 246 244 242 240 238 236 233 230 228 224 221 221 219 223 232 237 239 240 242 243 241 246 245 234 239 254 264 274 278 276 278 282 280 273 272 272 268 264 264
199 201 201 202 201 202 203 204 204 206 209 211 212 213 213 213 213 214 214 215 215 217 218 222 226 227 227 232 234 235 236 237 237 237 237 239 240 240 242 244 245 247 248 248 248 249 248 246 244 242 239 237 234 231 226 226 224 222 220 217 216 224 230 230 233 236 237 236 237 237 234 239 249 258 263 263 267 277 284 283 279 278 274 266 264 266
198 200 201 201 201 202 203 203 203 205 207 209 211 212 212 212 212 212 213 214 214 215 217 221 225 225 227 233 235 234 234 236 237 237 237 238 239 239 240 242 243 245 246 247 248 248 247 246 244 241 239 236 233 229 224 223 224 222 221 219 215 219 226 228 230 232 234 237 235 231 232 239 246 251 252 256 266 276 280 280 281 280 273 266 266 268
197 198 199 200 200 201 202 202 204 205 206 208 209 211 211 211 211 211 211 211 212 212 215 218 220 220 224 231 232 230 231 233 235 236 236 236 237 238 239 240 241 243 244 245 246 247 245 244 242 240 239 237 234 229 223 222 223 221 220 219 215 218 222 226 231 234 235 237 234 231 235 241 245 250 254 259 266 272 275 278 280 278 271 266 267 268
196 198 198 198 199 201 202 202 203 205 206 207 208 209 210 210 210 211 210 209 209 210 212 214 215 216 222 229 230 227 228 231 233 234 235 236 236 237 238 239 241 242 243 245 246 246 246 243 241 240 239 237 234 229 224 220 221 221 219 217 217 219 222 224 230 236 236 234 231 232 237 242 246 249 254 260 264 268 273 276 278 276 269 264 266 267
195 197 198 198 199 200 201 202 204 205 205 207 208 208 208 207 208 209 209 209 210 211 212 213 212 212 219 228 230 226 225 228 230 232 234 235 236 236 238 239 241 243 244 245 245 246 246 245 243 240 238 235 232 228 224 221 221 221 219 217 218 222 224 224 228 234 237 235 232 232 236 241 246 250 255 259 262 266 271 273 275 274 267 263 266 267
194 195 197 198 199 200 201 203 205 205 205 207 208 207 207 206 206 207 206 207 209 210 211 211 208 206 216 228 230 225 224 228 230 232 234 236 237 237 238 239 242 244 245 245 245 245 245 244 242 239 236 233 230 226 222 220 220 221 221 219 219 222 224 223 227 232 236 237 236 235 236 240 246 251 256 259 262 266 269 270 271 270 264 263 265 266
193 195 196 198 199 200 200 202 204 205 207 207 206 207 208 207 206 206 205 206 207 208 209 208 204 203 215 227 228 223 224 228 231 234 237 239 239 238 237 238 240 243 244 245 245 243 242 241 239 236 233 231 228 224 221 219 219 224 227 225 222 224 224 224 226 231 235 238 238 236 236 239 244 250 254 258 262 267 269 268 267 265 263 263 265 265
193 195 196 197 199 200 201 202 203 204 206 207 206 206 207 207 206 206 205 205 206 207 207 205 202 205 217 226 226 222 223 228 232 236 240 241 240 238 235 236 237 240 242 243 243 242 240 238 237 235 232 230 227 223 219 214 212 220 227 228 225 225 227 228 228 230 234 238 238 236 236 239 244 250 254 259 263 266 267 266 263 261 262 264 264 264
193 195 196 197 198 200 201 202 202 203 203 204 204 205 205 204 205 206 205 205 205 206 205 202 202 209 218 223 224 222 223 227 232 237 240 241 241 238 235 234 236 238 240 242 243 243 241 237 236 234 232 230 226 223 217 208 210 218 223 226 227 226 226 228 229 230 233 236 237 238 240 243 247 251 255 260 263 264 264 263 261 259 262 264 264 264
192 194 196 197 198 199 201 202 202 202 203 203 203 203 203 202 203 204 205 205 204 205 204 201 204 213 219 221 221 222 223 227 231 236 240 241 241 238 236 235 236 237 239 242 244 245 243 239 235 233 231 228 224 222 215 207 212 219 221 224 228 227 226 227 228 229 232 235 238 241 244 247 250 254 257 259 261 261 260 260 259 258 260 261 263 265
192 194 196 198 198 199 200 201 202 202 202 203 202 202 202 202 201 202 203 204 205 205 203 202 207 214 219 219 219 221 224 227 231 235 240 241 241 240 237 236 236 237 239 241 244 246 246 243 238 233 230 226 221 218 213 209 214 220 222 225 227 227 227 229 229 231 233 236 239 241 244 248 252 256 259 259 258 257 256 257 257 258 260 261 264 265
192 194 196 198 199 201 202 202 203 203 204 204 202 201 202 202 201 199 200 202 205 205 204 204 210 216 219 219 219 222 225 228 231 236 240 242 243 242 239 237 236 237 239 241 243 245 246 245 241 235 229 224 219 215 211 210 215 220 222 225 226 226 227 229 230 232 234 236 238 241 246 252 256 258 258 257 254 254 255 257 258 260 261 262 263 264
191 194 195 197 198 201 202 203 203 202 204 205 204 202 202 202 202 200 200 201 202 202 204 207 212 218 220 219 219 222 226 229 233 237 241 243 244 244 242 239 237 238 239 241 243 244 244 243 240 236 230 224 219 216 212 212 215 219 222 225 227 227 227 228 230 232 234 236 238 242 248 255 259 259 257 253 250 250 253 257 260 261 261 261 262 264
192 194 195 196 197 199 200 201 202 201 202 202 202 202 202 202 202 202 202 202 201 201 203 207 212 218 220 220 220 222 225 229 232 237 241 243 245 245 244 241 239 238 238 240 243 244 244 242 238 235 231 226 220 216 213 213 216 219 222 225 228 228 228 229 232 234 237 239 241 242 242 245 249 253 254 253 251 249 251 254 257 259 260 262 265 268
192 194 195 196 198 199 200 201 202 202 202 201 200 200 202 202 203 202 202 202 203 202 203 206 211 216 219 220 220 222 225 228 231 235 238 241 243 244 244 242 240 237 236 237 240 244 244 243 240 236 232 228 223 218 215 215 216 219 221 225 229 230 231 232 234 236 238 240 242 242 240 240 242 246 248 251 254 256 255 254 255 257 260 263 266 268
192 194 196 197 198 198 200 200 201 201 202 201 199 199 200 201 203 203 202 202 203 204 205 208 212 215 218 220 221 222 225 227 230 234 237 239 242 243 244 243 241 238 235 234 237 242 244 244 243 240 236 232 227 223 220 218 218 220 222 225 229 231 232 233 235 236 237 238 240 241 242 241 241 242 243 247 253 256 256 256 257 257 259 263 266 268
192 193 195 196 198 198 199 201 200 200 200 200 199 198 198 199 201 202 202 203 203 204 206 209 212 215 217 220 222 222 224 227 230 233 235 238 240 242 243 244 243 241 237 234 235 241 244 245 245 243 240 237 232 228 225 222 222 222 224 226 228 230 232 235 237 238 238 240 241 242 243 243 242 242 243 245 248 252 255 257 258 260 262 265 267 268
191 192 194 195 197 198 198 199 199 199 198 199 198 198 198 199 200 201 202 203 204 205 207 210 212 214 217 220 222 223 224 226 229 231 233 236 238 240 243 244 245 244 241 238 236 239 244 247 247 245 241 237 233 230 227 225 224 224 225 226 228 230 232 234 236 237 238 239 241 242 243 244 244 244 245 246 247 250 254 257 260 261 263 265 266 267
190 191 192 193 195 196 197 197 198 198 198 198 197 197 198 199 200 201 202 203 204 206 208 211 213 214 217 220 222 223 224 226 228 231 233 235 237 240 242 245 246 246 244 241 238 239 242 246 248 247 244 239 235 232 229 227 226 226 226 227 228 228 230 231 234 235 236 238 240 241 243 244 245 246 247 248 249 250 253 256 259 261 262 263 264 266
189 190 191 192 193 195 196 196 196 197 197 197 197 197 198 199 200 201 202 203 204 205 208 212 214 214 216 219 222 224 226 227 229 231 234 236 237 240 243 245 246 245 243 241 240 238 239 242 246 248 248 246 243 239 236 233 230 230 229 229 229 230 231 233 235 236 238 240 241 243 246 247 249 250 251 252 253 253 255 256 258 260 261 262 263 266
188 189 190 192 193 194 195 196 195 195 195 197 198 198 198 200 201 201 202 203 204 205 208 212 214 214 216 219 221 224 227 228 230 232 235 237 238 240 242 244 245 244 241 240 239 239 239 240 243 247 249 250 249 246 243 240 237 235 233 233 233 233 233 235 236 237 238 240 242 245 248 250 251 253 255 256 255 255 255 256 258 259 260 261 264 267
187 189 190 192 193 194 195 195 195 194 195 197 198 198 199 201 203 204 204 205 205 206 208 212 214 215 216 218 220 223 226 229 231 233 236 237 238 240 242 244 244 243 242 241 241 242 242 242 243 245 248 251 252 251 249 247 245 243 240 239 237 236 236 238 239 239 240 241 243 244 246 250 253 255 256 257 257 256 255 256 257 259 261 263 265 267
187 189 190 192 193 194 194 194 194 195 196 197 197 198 200 201 203 205 206 207 207 208 209 212 214 216 217 218 219 222 225 229 231 233 236 237 239 240 241 242 243 244 245 246 246 247 247 247 247 247 248 249 251 252 252 251 249 247 245 244 242 241 242 242 242 241 240 241 242 243 244 248 253 257 260 262 261 259 258 258 260 262 262 262 265 271
188 189 190 192 193 193 193 194 195 196 197 197 197 198 201 202 203 205 206 207 208 209 210 212 215 217 218 218 219 222 225 228 231 234 236 237 238 239 240 241 244 246 248 249 249 250 251 251 251 251 251 250 251 252 253 254 253 252 251 249 247 246 247 246 243 239 238 240 243 245 246 247 251 257 261 261 260 260 262 263 264 263 262 266 273 280
188 190 191 192 192 193 193 194 195 196 197 197 198 199 201 203 204 205 206 207 209 211 212 214 216 218 219 219 220 222 225 228 231 234 236 237 238 239 241 243 245 246 248 249 250 252 253 254 254 254 254 253 253 253 253 254 255 255 255 254 252 251 250 249 246 242 239 238 238 241 244 245 248 253 255 256 258 261 262 262 261 263 269 278 283 284
188 190 191 191 192 193 194 194 195 197 198 198 199 200 201 203 205 206 207 208 209 212 213 215 217 219 220 220 220 222 225 227 230 233 235 236 238 239 241 243 244 245 247 249 252 254 256 257 257 256 256 255 255 255 255 255 255 256 255 255 254 252 252 252 252 249 245 239 232 234 239 241 244 249 252 253 255 258 259 258 260 267 277 284 285 282
188 190 191 191 192 193 194 195 197 198 198 199 200 201 202 203 205 206 207 208 210 212 214 215 217 220 221 222 222 223 225 227 229 232 234 236 238 239 241 242 243 246 248 251 253 255 256 257 258 258 258 258 257 257 257 256 256 256 256 256 254 252 250 247 245 243 242 239 233 233 238 241 243 248 252 253 253 254 257 259 262 269 276 279 279 278
189 190 191 191 192 193 195 197 198 199 199 199 201 202 203 203 204 205 207 209 211 212 214 216 217 220 221 223 223 224 225 227 229 232 235 237 239 240 241 242 243 245 248 250 253 254 255 256 257 258 259 259 259 258 257 257 257 257 256 255 253 250 243 237 237 239 240 240 238 237 241 244 245 248 251 253 253 253 255 258 261 266 270 271 272 274
189 191 192 192 193 195 196 198 199 199 200 200 201 203 204 204 205 206 208 210 211 213 215 216 217 219 221 222 223 224 226 228 229 231 234 237 239 241 242 242 243 245 247 249 252 253 255 256 257 259 260 261 260 259 258 257 257 257 256 254 253 250 242 233 235 240 243 242 240 240 243 245 246 247 247 246 249 253 254 256 259 261 263 265 268 271
190 192 193 194 194 196 197 198 199 200 201 201 202 203 204 205 206 208 209 211 212 214 216 217 218 220 221 222 223 225 227 228 229 231 234 237 239 241 243 243 244 245 247 249 251 252 254 255 256 258 260 261 261 260 259 258 256 256 256 253 250 248 244 236 232 234 237 239 240 242 245 246 247 246 243 242 246 252 255 257 258 259 260 262 264 266
191 192 194 194 195 196 197 198 199 200 201 202 203 203 205 207 208 209 211 212 214 216 217 219 220 221 222 223 224 225 227 228 230 233 235 237 240 241 243 244 244 245 246 248 250 251 252 253 255 256 257 259 260 261 261 259 257 255 256 254 249 245 244 241 235 231 231 235 239 242 245 247 246 243 240 241 245 250 253 256 258 258 258 259 262 265
190 192 194 195 196 197 198 198 199 200 202 203 203 204 206 208 209 211 212 214 215 217 219 221 221 222 223 224 225 226 228 229 231 234 237 239 242 243 244 245 246 246 247 247 249 250 251 253 254 255 256 257 259 261 262 262 259 257 256 256 253 248 245 243 240 234 232 234 236 237 240 243 244 241 238 240 244 248 251 254 256 258 260 262 265 268
190 192 193 195 197 199 199 200 200 201 203 204 205 206 207 209 211 212 213 215 217 218 220 222 223 223 223 224 226 227 229 230 232 234 237 240 243 245 246 247 247 247 248 248 249 250 252 253 255 256 258 259 259 261 263 263 262 260 258 257 255 252 248 246 244 240 236 235 236 236 236 239 241 242 242 243 246 249 252 253 255 258 262 265 267 269
191 192 193 195 198 200 201 202 202 202 204 206 207 207 208 210 211 213 214 216 217 219 221 224 225 225 224 225 226 228 229 231 232 234 237 240 242 245 247 248 248 249 249 249 250 251 253 254 256 257 258 259 260 261 262 263 263 262 261 259 258 256 253 250 248 245 242 239 238 237 237 237 239 242 244 245 246 248 251 253 255 258 261 263 265 267
192 193 194 195 198 200 201 202 203 204 205 207 207 208 209 210 211 213 214 216 217 219 222 224 226 226 225 226 227 228 230 231 233 235 236 238 241 243 245 247 249 250 251 251 251 252 253 254 255 256 256 257 259 260 261 261 262 263 263 261 259 258 257 254 251 248 246 243 241 240 239 238 238 239 242 243 244 246 248 251 254 256 259 260 261 263
194 195 196 197 199 201 202 203 204 206 208 209 209 209 210 211 212 213 215 216 217 219 222 224 225 226 226 227 227 229 230 232 234 236 238 239 241 243 245 247 249 250 251 251 251 252 253 253 254 254 255 256 258 260 260 261 261 262 264 263 262 261 259 258 255 252 248 245 243 242 242 242 241 241 242 243 244 245 247 250 252 254 256 257 259 262
197 198 198 199 201 203 204 205 207 208 210 211 211 212 213 213 214 215 216 217 219 221 222 224 225 225 226 227 228 229 231 233 235 237 239 240 242 243 245 246 248 249 250 251 253 253 254 254 254 255 256 257 258 259 260 261 261 262 263 264 265 264 262 261 259 257 253 250 247 245 244 244 244 245 245 246 246 247 249 251 254 256 258 260 262 265
Height
10529 10540 10554 10570 10583 10590 10594 10598 10602 10606 10612 10621 10624 10628 10632 10632 10634 10637 10640 10646 10652 10658 10664 10669 10672 10671 10676 10682 10685 10688 10692 10696 10700 10704 10706 10709 10713 10716 10718 10720 10720 10722 10728 10732 10735 10739 10741 10743 10745 10748 10751 10753 10756 10760 10764 10767 10770 10773 10775 10778 10780 10782 10783 10783 10784 10784 10784 10785 10785 10785 10785 10785 10784 10784 10785 10786 10787 10788 10789 10790 10791 10791 10791 10791 10791 10792
10519 10536 10555 10567 10572 10577 10582 10586 10593 10601 10610 10616 10616 10620 10625 10625 10628 10633 10637 10642 10648 10655 10660 10664 10667 10668 10673 10679 10682 10686 10690 10694 10697 10700 10702 10704 10708 10711 10714 10715 10715 10718 10723 10728 10731 10734 10736 10737 10740 10743 10746 10749 10752 10756 10760 10764 10767 10770 10772 10775 10777 10778 10779 10778 10779 10779 10780 10781 10782 10782 10782 10781 10780 10780 10780 10782 10783 10783 10784 10785 10786 10786 10786 10787 10787 10788
10516 10537 10550 10555 10559 10566 10573 10578 10588 10598 10604 10606 10607 10613 10618 10620 10624 10630 10634 10640 10646 10653 10657 10661 10664 10665 10670 10675 10680 10684 10687 10689 10692 10695 10698 10701 10704 10707 10709 10710 10711 10715 10719 10723 10726 10728 10730 10732 10735 10738 10741 10744 10748 10752 10756 10760 10763 10766 10768 10770 10772 10773 10773 10773 10774 10775 10777 10777 10777 10777 10777 10776 10775 10775 10776 10777 10778 10779 10780 10780 10781 10781 10781 10782 10784 10785
10518 10533 10537 10540 10550 10560 10567 10574 10583 10591 10594 10597 10602 10609 10613 10616 10621 10625 10631 10638 10644 10649 10654 10659 10661 10662 10668 10673 10678 10682 10683 10684 10688 10691 10694 10698 10701 10702 10703 10705 10707 10710 10714 10717 10719 10721 10724 10727 10730 10733 10737 10740 10744 10748 10752 10756 10759 10761 10764 10766 10767 10767 10766 10767 10769 10771 10772 10772 10772 10771 10771 10770 10770 10770 10771 10773 10774 10775 10775 10776 10776 10776 10777 10778 10780 10781
10510 10517 10521 10532 10545 10554 10560 10567 10576 10583 10588 10593 10599 10604 10608 10612 10616 10620 10627 10634 10638 10644 10650 10654 10656 10660 10666 10671 10675 10678 10679 10681 10685 10687 10690 10693 10695 10696 10697 10700 10702 10704 10708 10710 10712 10714 10717 10721 10725 10729 10733 10737 10741 10745 10748 10752 10754 10757 10759 10761 10762 10762 10761 10763 10766 10767 10767 10767 10767 10766 10765 10765 10764 10765 10767 10769 10770 10770 10771 10772 10772 10772 10773 10774 10776 10776
10492 10500 10511 10528 10539 10545 10553 10561 10571 10579 10584 10589 10594 10600 10604 10607 10610 10616 10624 10629 10634 10641 10647 10650 10654 10658 10664 10667 10671 10674 10676 10678 10681 10684 10686 10688 10690 10692 10693 10694 10696 10698 10702 10704 10706 10708 10712 10716 10720 10724 10729 10733 10736 10740 10744 10748 10749 10752 10755 10757 10758 10757 10758 10760 10762 10762 10763 10763 10762 10761 10760 10759 10759 10760 10762 10764 10765 10765 10766 10767 10768 10768 10769 10770 10771 10772
10481 10493 10509 10523 10531 10537 10546 10556 10566 10573 10578 10584 10590 10595 10599 10602 10607 10613 10620 10624 10631 10638 10643 10647 10651 10655 10659 10663 10667 10670 10673 10675 10678 10681 10683 10684 10685 10686 10687 10688 10690 10693 10696 10699 10701 10703 10708 10713 10717 10721 10725 10728 10732 10736 10740 10742 10745 10749 10752 10754 10754 10753 10753 10755 10756 10756 10757 10757 10756 10756 10756 10755 10755 10756 10757 10758 10759 10760 10761 10762 10763 10763 10764 10765 10766 10767
10473 10490 10505 10514 10521 10530 10541 10552 10561 10567 10573 10579 10584 10588 10592 10596 10602 10610 10615 10621 10628 10635 10640 10644 10647 10651 10656 10661 10665 10667 10670 10673 10676 10677 10677 10678 10679 10680 10681 10683 10686 10688 10692 10696 10698 10700 10704 10709 10714 10718 10721 10724 10727 10731 10735 10737 10741 10747 10751 10751 10748 10746 10747 10748 10749 10750 10751 10751 10751 10752 10753 10753 10753 10753 10753 10753 10754 10755 10756 10757 10758 10758 10759 10760 10761 10763
10473 10489 10499 10505 10514 10526 10538 10547 10555 10560 10566 10573 10578 10582 10585 10591 10599 10605 10610 10617 10625 10632 10637 10640 10645 10650 10655 10659 10662 10664 10668 10671 10671 10670 10670 10672 10674 10676 10679 10680 10683 10685 10689 10693 10695 10697 10701 10705 10710 10714 10718 10720 10723 10726 10730 10734 10740 10746 10749 10746 10741 10738 10739 10741 10744 10746 10746 10746 10748 10750 10750 10750 10750 10750 10750 10750 10750 10751 10752 10752 10753 10753 10754 10755 10757 10758
10467 10481 10488 10497 10510 10522 10530 10539 10547 10552 10560 10569 10572 10574 10580 10587 10594 10599 10605 10614 10622 10628 10633 10638 10644 10649 10653 10656 10659 10663 10666 10665 10663 10664 10667 10670 10672 10674 10675 10677 10679 10682 10686 10689 10691 10694 10697 10701 10706 10710 10713 10716 10718 10721 10725 10730 10737 10743 10743 10736 10731 10730 10732 10736 10740 10742 10742 10742 10745 10747 10747 10746 10746 10746 10746 10747 10746 10747 10747 10747 10748 10748 10749 10751 10753 10754
10458 10470 10477 10490 10504 10513 10522 10533 10540 10545 10555 10562 10563 10567 10576 10582 10589 10596 10603 10612 10620 10626 10632 10637 10642 10645 10649 10653 10657 10660 10659 10658 10658 10661 10665 10667 10668 10670 10672 10674 10676 10679 10682 10685 10687 10690 10692 10696 10702 10706 10708 10710 10712 10716 10720 10726 10732 10736 10732 10723 10720 10723 10728 10733 10736 10739 10739 10738 10741 10744 10744 10743 10742 10741 10741 10742 10742 10742 10742 10743 10743 10743 10744 10747 10748 10749
10452 10460 10470 10485 10496 10505 10517 10528 10533 10539 10550 10555 10555 10562 10571 10578 10585 10593 10600 10609 10619 10625 10630 10634 10638 10642 10647 10651 10654 10654 10653 10654 10657 10659 10660 10662 10664 10667 10668 10670 10673 10675 10678 10681 10683 10686 10689 10693 10697 10701 10703 10704 10707 10710 10715 10721 10725 10725 10719 10713 10715 10721 10728 10732 10734 10735 10735 10735 10737 10740 10741 10740 10736 10735 10737 10738 10738 10738 10738 10738 10738 10738 10740 10743 10744 10744
10447 10456 10469 10481 10491 10503 10515 10520 10524 10534 10544 10546 10550 10561 10569 10576 10583 10591 10600 10610 10617 10622 10626 10632 10636 10639 10645 10649 10650 10649 10649 10651 10653 10654 10656 10659 10661 10663 10664 10666 10668 10671 10674 10677 10680 10683 10686 10690 10694 10696 10698 10699 10701 10705 10710 10716 10718 10715 10712 10714 10719 10722 10726 10729 10731 10730 10730 10731 10732 10735 10737 10735 10730 10731 10735 10734 10734 10733 10733 10733 10734 10734 10737 10739 10739 10739
10440 10450 10463 10474 10487 10500 10508 10514 10524 10537 10544 10548 10556 10565 10571 10577 10585 10594 10602 10609 10613 10619 10625 10630 10632 10638 10643 10645 10645 10645 10645 10647 10649 10651 10654 10656 10658 10658 10659 10662 10665 10668 10671 10674 10678 10681 10684 10687 10690 10691 10693 10694 10696 10699 10705 10710 10710 10709 10711 10716 10718 10718 10720 10726 10727 10725 10726 10727 10728 10729 10731 10730 10727 10730 10733 10732 10731 10730 10729 10729 10730 10731 10733 10734 10735 10736
10438 10449 10462 10475 10488 10498 10504 10515 10527 10536 10542 10548 10556 10561 10568 10577 10586 10593 10599 10604 10611 10618 10623 10626 10630 10636 10641 10641 10641 10642 10642 10644 10646 10648 10651 10652 10653 10653 10656 10659 10662 10665 10668 10671 10675 10678 10681 10683 10685 10687 10687 10688 10691 10694 10700 10703 10703 10705 10710 10712 10714 10716 10719 10724 10723 10720 10722 10724 10724 10725 10726 10726 10726 10729 10732 10730 10728 10727 10726 10726 10727 10728 10729 10730 10731 10732
10435 10450 10464 10476 10486 10494 10502 10512 10519 10524 10532 10540 10547 10555 10565 10573 10580 10586 10594 10602 10609 10616 10621 10624 10629 10635 10638 10637 10637 10638 10640 10641 10642 10644 10647 10648 10648 10650 10653 10656 10659 10662 10665 10668 10672 10675 10677 10679 10681 10681 10682 10683 10686 10690 10695 10698 10699 10702 10705 10708 10714 10717 10717 10719 10718 10716 10719 10721 10722 10723 10723 10723 10724 10727 10729 10728 10725 10724 10723 10723 10724 10725 10726 10726 10727 10729
10431 10443 10454 10466 10479 10488 10495 10504 10513 10521 10529 10537 10545 10555 10562 10568 10576 10584 10592 10599 10606 10612 10616 10620 10626 10632 10633 10630 10630 10634 10636 10637 10638 10641 10643 10643 10644 10647 10650 10652 10655 10659 10662 10665 10669 10671 10674 10675 10676 10677 10677 10679 10682 10686 10691 10694 10696 10698 10701 10706 10710 10710 10709 10711 10712 10713 10716 10718 10719 10720 10720 10720 10721 10722 10724 10724 10722 10721 10721 10720 10721 10722 10723 10723 10725 10726
10427 10438 10450 10464 10475 10482 10491 10501 10509 10515 10525 10534 10542 10549 10556 10565 10576 10583 10589 10595 10601 10606 10609 10615 10623 10627 10627 10624 10626 10631 10633 10633 10635 10637 10638 10639 10641 10644 10646 10649 10653 10656 10659 10663 10666 10668 10670 10671 10672 10673 10674 10675 10678 10683 10687 10690 10692 10693 10698 10703 10703 10702 10705 10710 10710 10710 10713 10714 10715 10717 10717 10717 10717 10718 10720 10719 10719 10718 10718 10718 10718 10719 10720 10721 10722 10722
10418 10434 10449 10460 10468 10476 10487 10495 10500 10508 10521 10530 10536 10544 10555 10566 10573 10578 10586 10594 10599 10603 10608 10614 10620 10623 10624 10622 10623 10627 10629 10630 10632 10633 10634 10635 10638 10641 10644 10648 10650 10653 10656 10660 10662 10664 10666 10667 10669 10670 10670 10672 10675 10679 10684 10688 10689 10690 10695 10698 10698 10700 10705 10708 10708 10708 10709 10710 10711 10713 10714 10714 10714 10715 10716 10715 10715 10715 10715 10715 10715 10716 10717 10718 10718 10719
10418 10432 10444 10453 10461 10471 10480 10488 10497 10510 10520 10526 10534 10545 10554 10561 10568 10575 10584 10591 10596 10601 10606 10612 10617 10621 10621 10617 10618 10623 10626 10627 10629 10630 10631 10633 10636 10640 10643 10646 10648 10650 10653 10657 10659 10661 10663 10664 10665 10666 10667 10668 10671 10676 10681 10684 10686 10688 10691 10693 10695 10698 10701 10703 10704 10705 10705 10706 10708 10709 10710 10710 10711 10712 10712 10711 10712 10712 10711 10711 10712 10713 10714 10714 10715 10715
10418 10429 10439 10448 10457 10467 10478 10488 10499 10511 10518 10526 10537 10546 10552 10559 10567 10574 10580 10586 10592 10597 10603 10608 10613 10617 10616 10611 10613 10620 10623 10624 10626 10627 10629 10631 10635 10639 10641 10644 10646 10647 10651 10653 10656 10658 10659 10660 10661 10662 10663 10665 10668 10673 10677 10681 10686 10687 10686 10688 10692 10694 10696 10698 10699 10700 10701 10702 10703 10705 10706 10706 10707 10708 10708 10708 10708 10709 10708 10708 10709 10710 10710 10711 10711 10711
10416 10426 10436 10447 10459 10471 10479 10486 10495 10505 10514 10526 10536 10543 10550 10559 10565 10572 10578 10584 10589 10594 10599 10605 10609 10611 10609 10606 10609 10617 10621 10622 10624 10625 10627 10630 10633 10636 10639 10641 10642 10645 10648 10650 10652 10654 10656 10657 10658 10658 10660 10662 10665 10670 10674 10681 10685 10681 10677 10681 10686 10688 10691 10693 10695 10696 10697 10698 10700 10702 10702 10702 10703 10703 10704 10704 10704 10705 10705 10705 10706 10707 10707 10707 10707 10707
10415 10425 10436 10446 10457 10466 10472 10479 10489 10499 10509 10520 10529 10537 10546 10555 10563 10570 10576 10581 10586 10591 10597 10602 10605 10605 10602 10602 10608 10615 10618 10620 10621 10623 10625 10627 10630 10634 10636 10637 10640 10642 10645 10647 10649 10651 10653 10655 10655 10656 10657 10659 10663 10667 10673 10680 10680 10673 10670 10675 10679 10682 10686 10688 10690 10691 10693 10694 10696 10698 10698 10699 10699 10700 10700 10700 10701 10702 10702 10702 10702 10703 10703 10703 10703 10703
10411 10422 10432 10440 10447 10456 10465 10476 10487 10496 10505 10515 10525 10535 10545 10553 10560 10566 10572 10578 10584 10589 10593 10598 10600 10598 10597 10601 10607 10612 10614 10617 10618 10620 10622 10625 10628 10631 10633 10635 10637 10640 10642 10644 10646 10648 10650 10652 10653 10654 10655 10657 10661 10665 10671 10677 10674 10668 10669 10671 10673 10677 10681 10683 10685 10687 10689 10691 10692 10693 10695 10696 10696 10696 10696 10697 10697 10698 10698 10698 10699 10700 10699 10699 10699 10699
10407 10416 10426 10435 10443 10451 10459 10469 10481 10493 10505 10516 10526 10535 10543 10549 10555 10562 10571 10578 10582 10585 10590 10593 10594 10592 10594 10599 10605 10608 10611 10613 10615 10618 10620 10622 10625 10628 10630 10632 10635 10638 10640 10642 10644 10646 10647 10649 10650 10652 10653 10655 10658 10662 10667 10672 10669 10665 10667 10668 10669 10674 10677 10679 10682 10684 10685 10687 10688 10690 10691 10692 10692 10692 10693 10694 10694 10694 10694 10694 10695 10696 10695 10695 10695 10696
10405 10416 10426 10438 10450 10460 10470 10481 10494 10505 10514 10521 10528 10535 10541 10547 10554 10562 10568 10572 10576 10582 10587 10589 10589 10588 10591 10597 10602 10606 10608 10610 10613 10615 10617 10619 10622 10625 10627 10629 10632 10635 10638 10640 10642 10643 10645 10646 10648 10649 10650 10652 10655 10658 10662 10666 10664 10663 10664 10665 10666 10670 10673 10676 10679 10680 10682 10683 10685 10687 10689 10690 10690 10689 10689 10690 10690 10690 10690 10691 10692 10692 10691 10691 10692 10692
10408 10418 10430 10443 10455 10467 10477 10488 10498 10506 10514 10522 10529 10536 10542 10548 10554 10559 10562 10566 10572 10578 10582 10585 10585 10586 10589 10595 10600 10603 10605 10608 10611 10613 10615 10617 10619 10621 10624 10626 10629 10632 10635 10637 10639 10640 10642 10643 10644 10646 10647 10649 10652 10654 10658 10661 10661 10660 10660 10661 10663 10667 10670 10673 10675 10677 10678 10680 10682 10686 10689 10688 10685 10684 10685 10685 10686 10686 10687 10687 10688 10689 10688 10688 10687 10687
10412 10421 10431 10442 10450 10458 10468 10479 10489 10497 10506 10514 10524 10532 10538 10544 10549 10555 10560 10565 10570 10574 10578 10581 10582 10583 10587 10593 10597 10600 10603 10606 10608 10610 10612 10614 10616 10619 10621 10624 10627 10629 10632 10634 10635 10637 10638 10640 10641 10643 10644 10646 10648 10651 10653 10656 10656 10656 10656 10658 10660 10663 10667 10669 10671 10672 10674 10676 10679 10682 10684 10681 10680 10680 10680 10680 10681 10682 10683 10684 10685 10685 10684 10683 10682 10682
10413 10422 10431 10440 10448 10459 10470 10480 10489 10498 10505 10512 10519 10527 10535 10541 10547 10553 10559 10564 10567 10571 10574 10576 10578 10581 10585 10590 10594 10598 10600 10603 10605 10607 10609 10611 10613 10616 10618 10621 10623 10626 10628 10630 10632 10633 10634 10636 10638 10639 10640 10642 10644 10646 10648 10650 10652 10652 10653 10655 10657 10660 10663 10665 10667 10668 10671 10673 10674 10676 10676 10676 10676 10677 10677 10677 10678 10679 10679 10680 10681 10681 10680 10679 10677 10677
10411 10421 10431 10441 10451 10462 10471 10478 10485 10494 10502 10510 10516 10523 10531 10538 10544 10550 10556 10560 10565 10570 10573 10575 10577 10579 10583 10588 10591 10595 10597 10600 10602 10604 10606 10608 10610 10613 10615 10617 10619 10622 10624 10627 10628 10629 10630 10633 10634 10636 10637 10639 10640 10642 10644 10646 10648 10649 10651 10653 10655 10657 10660 10661 10662 10664 10667 10668 10669 10670 10671 10672 10673 10673 10673 10674 10675 10675 10676 10676 10676 10676 10676 10674 10673 10672
10412 10421 10431 10441 10451 10460 10467 10475 10482 10490 10498 10505 10512 10519 10525 10532 10539 10547 10553 10558 10563 10567 10570 10572 10575 10578 10581 10584 10587 10590 10594 10596 10599 10601 10603 10605 10607 10610 10612 10614 10616 10618 10621 10623 10625 10626 10627 10629 10631 10633 10634 10636 10637 10639 10640 10642 10644 10645 10647 10649 10651 10654 10656 10657 10658 10660 10663 10664 10665 10666 10666 10667 10668 10668 10668 10669 10670 10671 10671 10671 10671 10671 10671 10669 10667 10666
10414 10422 10431 10440 10449 10457 10465 10473 10481 10487 10493 10499 10507 10516 10524 10531 10537 10544 10550 10556 10560 10563 10566 10569 10572 10575 10578 10580 10583 10587 10590 10593 10596 10598 10599 10601 10604 10607 10609 10611 10613 10615 10618 10620 10621 10623 10624 10625 10627 10629 10631 10633 10634 10635 10637 10638 10640 10641 10643 10645 10648 10650 10652 10653 10653 10655 10657 10659 10660 10661 10661 10662 10664 10664 10664 10665 10665 10666 10666 10666 10666 10666 10665 10663 10662 10661
10414 10423 10432 10440 10448 10455 10463 10470 10478 10484 10491 10499 10509 10517 10524 10529 10535 10541 10547 10552 10555 10559 10563 10565 10568 10571 10575 10577 10579 10583 10586 10590 10593 10594 10596 10599 10602 10604 10606 10609 10611 10613 10615 10616 10618 10619 10621 10622 10623 10625 10627 10629 10630 10632 10633 10634 10636 10637 10639 10641 10643 10645 10646 10647 10647 10649 10651 10653 10654 10655 10656 10657 10659 10660 10660 10661 10661 10662 10662 10661 10661 10660 10659 10658 10656 10655
10416 10424 10432 10439 10447 10454 10460 10467 10474 10483 10493 10503 10510 10515 10521 10526 10532 10538 10543 10547 10551 10556 10559 10560 10563 10568 10572 10574 10577 10580 10584 10587 10589 10591 10593 10596 10600 10602 10604 10606 10609 10611 10612 10612 10614 10615 10617 10618 10620 10622 10623 10625 10627 10629 10630 10631 10632 10633 10635 10636 10638 10640 10642 10643 10644 10646 10648 10649 10650 10651 10652 10653 10654 10655 10656 10656 10656 10656 10656 10656 10655 10655 10654 10652 10650 10650
10417 10425 10432 10439 10446 10453 10460 10467 10476 10485 10495 10501 10506 10512 10518 10524 10528 10532 10536 10540 10545 10551 10554 10555 10560 10565 10568 10571 10575 10578 10580 10583 10585 10587 10590 10594 10597 10600 10602 10604 10606 10607 10608 10609 10610 10611 10613 10615 10617 10618 10620 10622 10623 10625 10626 10628 10629 10630 10631 10633 10635 10637 10638 10640 10641 10643 10644 10644 10645 10646 10647 10648 10649 10650 10650 10651 10651 10651 10651 10650 10650 10649 10648 10646 10646 10646
10416 10424 10431 10439 10446 10453 10461 10470 10479 10486 10492 10496 10502 10509 10515 10520 10525 10530 10535 10540 10545 10549 10551 10553 10558 10562 10565 10569 10572 10575 10577 10579 10582 10584 10587 10591 10594 10597 10599 10601 10602 10603 10604 10606 10607 10608 10610 10612 10613 10615 10617 10618 10620 10621 10623 10624 10626 10627 10628 10630 10632 10633 10635 10636 10638 10639 10640 10640 10641 10641 10642 10643 10644 10644 10645 10645 10646 10646 10646 10645 10644 10644 10642 10642 10641 10641
10416 10423 10431 10438 10446 10454 10462 10470 10477 10482 10486 10493 10501 10508 10514 10520 10526 10531 10536 10539 10543 10546 10549 10552 10555 10559 10562 10566 10569 10572 10574 10576 10579 10581 10584 10588 10591 10593 10595 10597 10598 10599 10601 10603 10605 10606 10607 10608 10610 10612 10614 10615 10616 10617 10619 10620 10622 10624 10625 10626 10628 10629 10630 10632 10634 10635 10636 10635 10635 10636 10637 10638 10639 10639 10640 10641 10641 10641 10641 10640 10639 10639 10638 10637 10637 10637
10417 10424 10431 10439 10446 10454 10461 10467 10473 10478 10485 10493 10500 10507 10512 10517 10522 10525 10530 10534 10538 10543 10547 10550 10552 10555 10559 10563 10567 10570 10572 10574 10576 10579 10582 10585 10588 10589 10591 10593 10595 10597 10599 10601 10602 10603 10604 10606 10607 10609 10610 10612 10613 10614 10615 10617 10618 10620 10621 10623 10625 10626 10627 10628 10629 10630 10630 10630 10631 10632 10632 10633 10634 10635 10636 10637 10636 10636 10636 10635 10634 10634 10633 10633 10633 10632
10418 10425 10432 10439 10447 10454 10460 10466 10472 10479 10486 10492 10498 10503 10508 10513 10517 10521 10526 10531 10536 10540 10543 10546 10549 10552 10556 10560 10564 10566 10569 10572 10575 10577 10579 10582 10583 10585 10588 10590 10593 10595 10596 10598 10599 10600 10602 10603 10604 10606 10606 10607 10609 10610 10612 10613 10614 10616 10618 10619 10620 10622 10622 10623 10625 10626 10625 10625 10627 10627 10626 10628 10630 10631 10632 10633 10632 10632 10631 10630 10630 10630 10630 10629 10628 10626
10419 10425 10432 10439 10446 10453 10459 10465 10471 10477 10482 10488 10494 10499 10504 10509 10514 10519 10524 10529 10532 10535 10539 10542 10545 10548 10552 10556 10560 10563 10566 10570 10572 10574 10575 10578 10580 10583 10586 10588 10590 10592 10593 10595 10596 10598 10599 10601 10602 10602 10603 10603 10605 10606 10607 10609 10611 10613 10614 10615 10616 10617 10618 10620 10621 10622 10621 10621 10622 10621 10620 10623 10626 10627 10629 10629 10629 10628 10627 10626 10626 10626 10625 10624 10623 10621
10419 10425 10432 10439 10445 10452 10458 10464 10468 10473 10479 10485 10491 10496 10501 10506 10511 10517 10522 10524 10526 10530 10534 10538 10541 10545 10548 10552 10556 10559 10563 10565 10567 10570 10573 10575 10578 10580 10582 10585 10587 10589 10591 10592 10594 10595 10597 10598 10599 10599 10599 10600 10601 10602 10603 10605 10607 10609 10610 10611 10612 10613 10615 10616 10616 10615 10614 10616 10616 10616 10616 10619 10621 10624 10626 10625 10624 10624 10623 10622 10623 10622 10621 10619 10618 10617
10420 10426 10433 10439 10445 10451 10456 10460 10465 10471 10477 10483 10488 10493 10499 10504 10509 10513 10516 10519 10522 10527 10530 10534 10538 10541 10544 10548 10552 10555 10557 10560 10564 10568 10571 10572 10574 10576 10579 10582 10585 10587 10588 10590 10591 10592 10594 10595 10595 10596 10596 10596 10597 10598 10599 10600 10603 10605 10606 10606 10607 10608 10609 10610 10610 10609 10610 10612 10613 10613 10614 10616 10618 10620 10621 10620 10619 10619 10618 10618 10618 10618 10617 10615 10614 10613
10421 10427 10433 10439 10445 10450 10454 10459 10465 10471 10476 10481 10486 10492 10497 10501 10505 10509 10511 10514 10518 10522 10526 10530 10534 10537 10540 10543 10547 10550 10554 10557 10562 10566 10567 10569 10571 10573 10576 10579 10582 10583 10585 10586 10588 10589 10590 10591 10591 10592 10592 10592 10592 10593 10594 10597 10599 10600 10600 10602 10603 10604 10604 10605 10606 10607 10608 10609 10610 10610 10611 10613 10614 10616 10616 10615 10614 10613 10612 10613 10613 10613 10612 10611 10610 10609
10420 10427 10432 10438 10444 10449 10453 10459 10463 10469 10474 10479 10484 10489 10494 10498 10501 10503 10507 10511 10515 10519 10523 10526 10530 10533 10536 10539 10543 10547 10551 10555 10559 10562 10564 10566 10568 10570 10573 10575 10577 10579 10581 10583 10584 10585 10586 10587 10587 10587 10587 10588 10588 10589 10590 10593 10595 10595 10595 10597 10599 10600 10600 10602 10603 10604 10605 10606 10606 10607 10609 10610 10611 10612 10612 10611 10609 10608 10607 10607 10607 10607 10606 10605 10605 10605
10420 10426 10431 10436 10441 10446 10450 10454 10460 10465 10471 10476 10481 10486 10490 10493 10496 10500 10505 10509 10512 10516 10519 10522 10526 10530 10532 10536 10540 10544 10548 10552 10556 10558 10560 10562 10565 10567 10569 10571 10573 10575 10577 10578 10579 10580 10581 10582 10582 10583 10583 10584 10584 10585 10586 10588 10590 10590 10591 10592 10595 10596 10596 10597 10598 10599 10601 10602 10603 10604 10606 10606 10607 10607 10607 10606 10605 10604 10602 10601 10601 10600 10600 10599 10599 10600
10419 10424 10429 10435 10439 10443 10447 10451 10457 10462 10468 10472 10477 10482 10486 10489 10494 10498 10502 10506 10509 10513 10516 10519 10523 10526 10530 10534 10538 10541 10545 10550 10553 10555 10557 10559 10560 10562 10564 10566 10568 10570 10572 10573 10574 10575 10576 10577 10578 10579 10579 10580 10581 10581 10582 10583 10585 10585 10586 10588 10590 10591 10592 10593 10594 10595 10596 10597 10598 10600 10601 10602 10602 10602 10602 10601 10600 10599 10598 10596 10595 10593 10593 10594 10594 10594
10417 10423 10428 10434 10439 10443 10447 10451 10456 10460 10465 10470 10474 10478 10482 10486 10491 10495 10499 10502 10506 10509 10512 10516 10519 10523 10527 10531 10535 10539 10543 10546 10548 10550 10552 10554 10556 10557 10559 10561 10563 10564 10566 10567 10568 10569 10571 10572 10573 10574 10575 10576 10577 10577 10578 10579 10580 10580 10582 10583 10584 10586 10587 10588 10589 10591 10592 10592 10593 10594 10596 10597 10597 10597 10597 10596 10595 10594 10592 10591 10590 10589 10588 10589 10588 10588
10416 10422 10428 10433 10437 10440 10445 10449 10454 10458 10462 10466 10470 10474 10478 10482 10487 10491 10494 10498 10502 10505 10509 10512 10516 10520 10525 10528 10532 10535 10538 10541 10543 10546 10547 10549 10551 10552 10554 10555 10557 10558 10560 10561 10563 10564 10566 10567 10569 10570 10571 10572 10572 10573 10574 10574 10575 10575 10577 10578 10579 10580 10581 10583 10584 10586 10587 10587 10588 10589 10590 10591 10592 10592 10592 10591 10590 10588 10586 10585 10585 10585 10584 10583 10583 10582
10416 10421 10425 10429 10433 10436 10441 10446 10450 10454 10457 10459 10463 10467 10472 10476 10480 10484 10488 10492 10497 10501 10505 10508 10512 10516 10521 10524 10528 10531 10534 10536 10538 10540 10542 10543 10545 10546 10548 10550 10551 10553 10554 10555 10557 10559 10561 10562 10563 10564 10565 10566 10567 10568 10569 10569 10570 10570 10571 10572 10573 10574 10575 10577 10578 10579 10581 10582 10582 10583 10583 10584 10585 10585 10585 10584 10583 10582 10581 10580 10580 10580 10579 10578 10578 10576
10414 10417 10421 10426 10429 10433 10438 10441 10445 10448 10450 10453 10457 10462 10466 10470 10474 10478 10483 10488 10492 10497 10500 10504 10508 10512 10517 10520 10523 10527 10530 10532 10534 10535 10536 10538 10539 10541 10543 10545 10546 10547 10548 10549 10551 10553 10555 10556 10557 10558 10559 10560 10561 10562 10563 10564 10565 10565 10565 10566 10567 10568 10569 10570 10571 10573 10574 10575 10576 10577 10577 10577 10578 10577 10577 10576 10576 10575 10574 10574 10574 10574 10573 10572 10571 10570
10411 10415 10419 10424 10427 10430 10434 10438 10441 10443 10445 10449 10454 10458 10462 10467 10471 10476 10481 10486 10490 10493 10497 10500 10504 10508 10512 10516 10519 10522 10525 10526 10528 10529 10530 10532 10534 10536 10538 10538 10539 10540 10541 10543 10545 10547 10549 10550 10551 10553 10554 10555 10556 10557 10557 10558 10559 10559 10559 10560 10561 10562 10563 10563 10565 10566 10568 10569 10569 10570 10570 10570 10570 10570 10569 10568 10568 10567 10567 10566 10566 10566 10566 10565 10563 10562